Flag for Germany Weather past 2 weeks in Wiesbaden, Hesse, Germany

Now
68 °F

Thundershowers. Passing clouds.


Feels Like: 68 °F
Forecast: 61 / 83 °F
Wind: 12 mph from North

Location: Wiesbaden Airport

Current Time: Jul 25, 2014 at 7:02:13 PM

Latest Report: Jul 25, 2014 at 5:58 PM


Visibility: N/A

Pressure: 29.88 "Hg

Humidity: 82%

Dew point: 63 °F

Location of WiesbadenLocation

Historic Weather in Wiesbaden — Graph

°F

Wiesbaden temperature yesterday

Maximum temperature yesterday: 81 °F (at 1:58 PM)
Minimum temperature yesterday: 67 °F (at 11:58 PM)
Average temperature yesterday: 73 °F

Past Weeks' High & Low Weather Summary

 TemperatureHumidityPressure
High92 °F (Jul 19, 4:58 PM)100% (Jul 10, 9:58 PM)30.19 "Hg (Jul 10, 9:58 PM)
Low59 °F (Jul 14, 5:59 AM)25% (Jul 18, 6:58 PM)29.77 "Hg (Jul 20, 3:58 AM)
Average73 °F65%29.97 "Hg
* Reported Jul 10 5:00 PM — Jul 25 5:58 PM, Wiesbaden, Weather by CustomWeather, © 2014

Note: Actual official high and low records may vary slightly from our data, if they occured in-between our weather recording intervals... More about our weather records

Advertising

Wiesbaden weather history for previous 24 hours

 ConditionsComfort  
Time TempWeatherWind HumidityBarometerVisibility
5:58 PM
Jul 25
68 °FThundershowers. Passing clouds.12 mph82%29.88 "HgN/A
4:59 PM70 °FThunderstorms. Mostly cloudy.12 mph69%29.91 "HgN/A
3:58 PM76 °FPassing clouds.5 mph50%29.88 "HgN/A
2:58 PM79 °FPartly sunny.6 mph51%29.89 "HgN/A
1:58 PM75 °FPassing clouds.3 mph56%29.90 "HgN/A
12:58 PM74 °FPartly sunny.5 mph58%29.91 "HgN/A
11:58 AM73 °FSunny.6 mph61%29.93 "HgN/A
10:58 AM71 °FSunny.5 mph65%29.94 "HgN/A
9:58 AM69 °FSunny.8 mph70%29.94 "HgN/A
8:58 AM68 °FSunny.6 mph69%29.94 "HgN/A
7:58 AM66 °FSunny.7 mph73%29.94 "HgN/A
6:58 AM63 °FSunny.6 mph77%29.92 "HgN/A
5:58 AM63 °FPassing clouds.6 mph79%29.93 "HgN/A
4:58 AM63 °FClear.7 mph77%29.93 "HgN/A
3:58 AM64 °FClear.8 mph75%29.93 "HgN/A
2:58 AM63 °FClear.3 mph80%29.93 "HgN/A
1:58 AM63 °FClear.7 mph88%29.94 "HgN/A
12:58 AM66 °FPassing clouds.7 mph73%29.94 "HgN/A
11:58 PM
Jul 24
67 °FOvercast.8 mph71%29.93 "HgN/A
10:58 PM68 °FPartly cloudy.9 mph69%29.94 "HgN/A
9:58 PM68 °FBroken clouds.9 mph65%29.95 "HgN/A
8:58 PM70 °FBroken clouds.10 mph59%29.92 "HgN/A
7:58 PM75 °FPartly sunny.7 mph50%29.92 "HgN/A
Weather by CustomWeather, © 2014

See weather overviewHow to use our weather pages